Raleigh, NC

2:52 PM EST on February 14, 2016 (GMT -0500)
Raleigh-Durham International

Weather History for KRDU - April, 2015

Change the Weather History Date:

Sunday, April 5, 2015

  Actual Average Record
Temperature  
Mean Temperature 51 °F 57 °F  
Max Temperature 68 °F 70 °F 90 °F (1942)
Min Temperature 33 °F 45 °F 29 °F (1992)
Degree Days  
Heating Degree Days 14 9  
Month to date heating degree days 37 45  
Since 1 July heating degree days 3353 3041  
Cooling Degree Days 0 1  
Month to date cooling degree days 7 5  
Year to date cooling degree days 11 17  
Moisture  
Dew Point 27 °F    
Average Humidity 49    
Maximum Humidity 75    
Minimum Humidity 22    
Precipitation  
Precipitation 0.00 in 0.10 in 2.08 in (1993)
Month to date precipitation 0.00 0.54  
Year to date precipitation 9.54 11.38  
Snow  
Snow 0.00 in 0.00 in T in (1987)
Month to date snowfall 0.0 0.0  
Since 1 July snowfall 7.9 6.0  
Snow Depth 0.00 in    
Sea Level Pressure  
Sea Level Pressure 30.31 in    
Wind  
Wind Speed 5 mph (South)    
Max Wind Speed 16 mph    
Max Gust Speed 22 mph    
Visibility 10 miles    
Events      
T = Trace of Precipitation, MM = Missing Value Source: NWS Daily Summary

Daily Weather History Graph

Daily Weather History Graph

Search for Another Location

Airport or City:

Trip Planner

Search our weather history database for the weather conditions in past years. The results will help you decide how hot, cold, wet, or windy it might be!

Date:

Astronomy

Apr. 05, 2015 Rise Set
Actual Time 6:56 AM EDT 7:40 PM EDT
Civil Twilight 6:30 AM EDT 8:06 PM EDT
Nautical Twilight 5:59 AM EDT 8:36 PM EDT
Astronomical Twilight 5:28 AM EDT 9:08 PM EDT
Moon 8:56 PM EDT (4/5) 7:34 AM EDT (4/5)
Length of Visible Light 13h 35m
Length of Day
12h 43m
Full, 99% of the Moon is Illuminated
Apr 5
Full
Apr 11
Last Quarter
Apr 18
New
Apr 25
First Quarter
May 3
Full

Hourly Weather History & Observations

Time (EDT) Temp. Windchill Dew Point Humidity Pressure Visibility Wind Dir Wind Speed Gust Speed Precip Events Conditions
12:51 AM 43.0 °F - 24.1 °F 47% 30.30 in 10.0 mi Calm Calm - N/A   Clear
1:51 AM 41.0 °F - 24.1 °F 51% 30.30 in 10.0 mi Calm Calm - N/A   Clear
2:51 AM 41.0 °F 39.0 °F 24.1 °F 51% 30.30 in 10.0 mi NNE 3.5 mph - N/A   Clear
3:51 AM 39.0 °F - 24.1 °F 55% 30.30 in 10.0 mi Calm Calm - N/A   Clear
4:51 AM 37.0 °F - 23.0 °F 57% 30.32 in 10.0 mi Calm Calm - N/A   Clear
5:51 AM 37.4 °F - 24.8 °F 60% 30.32 in 10.0 mi Calm Calm - N/A   Clear
6:51 AM 35.1 °F - 28.0 °F 76% 30.35 in 10.0 mi Calm Calm - N/A   Clear
7:51 AM 39.9 °F - 26.1 °F 58% 30.37 in 10.0 mi Calm Calm - N/A   Clear
8:51 AM 48.0 °F - 26.1 °F 42% 30.38 in 10.0 mi East 4.6 mph - N/A   Clear
9:51 AM 54.0 °F - 23.0 °F 30% 30.39 in 10.0 mi East 5.8 mph - N/A   Partly Cloudy
10:51 AM 57.0 °F - 19.0 °F 23% 30.39 in 10.0 mi ESE 6.9 mph - N/A   Partly Cloudy
11:51 AM 60.1 °F - 24.1 °F 25% 30.38 in 10.0 mi SSW 10.4 mph - N/A   Partly Cloudy
12:51 PM 63.0 °F - 28.9 °F 28% 30.36 in 10.0 mi SW 9.2 mph - N/A   Scattered Clouds
1:51 PM 63.0 °F - 28.0 °F 27% 30.34 in 10.0 mi SW 9.2 mph - N/A   Mostly Cloudy
2:51 PM 66.0 °F - 27.0 °F 23% 30.30 in 10.0 mi SSW 12.7 mph 18.4 mph N/A   Mostly Cloudy
3:51 PM 66.0 °F - 28.0 °F 24% 30.26 in 10.0 mi SW 8.1 mph - N/A   Mostly Cloudy
4:51 PM 66.0 °F - 28.0 °F 24% 30.26 in 10.0 mi Variable 5.8 mph - N/A   Mostly Cloudy
5:51 PM 66.0 °F - 27.0 °F 23% 30.25 in 10.0 mi WSW 4.6 mph - N/A   Mostly Cloudy
6:51 PM 63.0 °F - 28.0 °F 27% 30.25 in 10.0 mi SW 6.9 mph - N/A   Mostly Cloudy
7:51 PM 60.1 °F - 28.0 °F 30% 30.25 in 10.0 mi SE 3.5 mph - N/A   Mostly Cloudy
8:51 PM 55.0 °F - 30.0 °F 38% 30.27 in 10.0 mi Calm Calm - N/A   Overcast
9:51 PM 55.9 °F - 32.0 °F 40% 30.28 in 10.0 mi Calm Calm - N/A   Overcast
10:51 PM 57.0 °F - 32.0 °F 39% 30.29 in 10.0 mi South 8.1 mph - N/A   Overcast
11:51 PM 57.9 °F - 39.0 °F 49% 30.30 in 10.0 mi South 8.1 mph - N/A   Overcast